This is the latest recevied weather packets stored in our database for station/object PE1RXF-13. If no packets are shown the sender has not sent any weather packets the latest 10 day(s).
| Time | Temp. | Humidity | Pressure | Rain* | Wind** | Luminosity | Snow |
|---|---|---|---|---|---|---|---|
| 1788460457 | 17.78° C | 99% | 1014.3 hPa | 0 mm | - | 0 W/m² | - |
| 1788459354 | 18.33° C | 99% | 1014 hPa | 0 mm | - | 0 W/m² | - |
| 1788458251 | 18.33° C | 99% | 1014.3 hPa | 0 mm | - | 2 W/m² | - |
| 1788457148 | 18.89° C | 99% | 1014.1 hPa | 0 mm | - | 3 W/m² | - |
| 1788456045 | 18.89° C | 99% | 1014.3 hPa | 0 mm | - | 10 W/m² | - |
| 1788454942 | 19.44° C | 99% | 1013.9 hPa | 0 mm | - | 11 W/m² | - |
| 1788453839 | 19.44° C | 99% | 1013.9 hPa | 0 mm | - | 17 W/m² | - |
| 1788452736 | 20° C | 99% | 1013.9 hPa | 0 mm | - | 16 W/m² | - |
| 1788451633 | 20° C | 99% | 1014 hPa | 0 mm | - | 18 W/m² | - |
| 1788450529 | 20.56° C | 99% | 1013.8 hPa | 0 mm | - | 29 W/m² | - |
| 1788449427 | 21.11° C | 93% | 1013.6 hPa | 0 mm | - | 38 W/m² | - |
| 1788448324 | 21.67° C | 93% | 1013.5 hPa | 0 mm | - | 54 W/m² | - |
| 1788447221 | 22.78° C | 94% | 1013.4 hPa | 0 mm | - | 47 W/m² | - |
| 1788446117 | 21.67° C | 99% | 1013.5 hPa | 0 mm | - | 50 W/m² | - |
| 1788445015 | 23.89° C | 91% | 1013.2 hPa | 0 mm | - | 85 W/m² | - |
| 1788443912 | 22.22° C | 95% | 1013.2 hPa | 0 mm | - | 65 W/m² | - |
| 1788442809 | 22.78° C | 97% | 1013.2 hPa | 0 mm | - | 94 W/m² | - |
| 1788441705 | 22.22° C | 99% | 1013 hPa | 0 mm | - | 61 W/m² | - |
| 1788440603 | 22.78° C | 99% | 1013 hPa | 0 mm | - | 110 W/m² | - |
| 1788439500 | 22.78° C | 99% | 1012.8 hPa | 0 mm | - | 92 W/m² | - |
| 1788438396 | 22.78° C | 98% | 1012.7 hPa | 0 mm | - | 96 W/m² | - |
| 1788437293 | 21.67° C | 99% | 1012.5 hPa | 0 mm | - | 87 W/m² | - |
| 1788436191 | 22.22° C | 99% | 1012.6 hPa | 0.25 mm | - | 228 W/m² | - |
| 1788435088 | 21.11° C | 99% | 1012.4 hPa | 0.25 mm | - | 47 W/m² | - |
| 1788433984 | 21.67° C | 99% | 1012.3 hPa | 0.25 mm | - | 104 W/m² | - |
* Rain latest hour (hover to see other rain measurements)
** Current wind speed in m/s (hover to see current wind gust speed)